Tracking 29892 objects as of 21-Nov-2024
HD Live streaming from Space Station
objects crossing your sky now

DELTA 2 R/B(1)

Track DELTA 2 R/B(1) now!
10-day predictions


NORAD ID: 27665
Int'l Code: 2003-005C
Perigee: 795.0 km
Apogee: 807.9 km
Inclination: 39.6 °
Period: 100.8 minutes
Semi major axis: 7172 km
RCS: 9.691 m2 (large)
Launch date: January 29, 2003
Source: United States (US)
Launch site: AIR FORCE EASTERN TEST RANGE (AFETR)

Note: This is a ROCKET BODY
Your satellite tracking list
Your tracking list is empty




NASA's NSSDC Master Catalog

Two Line Element Set (TLE):
1 27665U 03005C   24325.45546813  .00000394  00000-0  18666-3 0  9992
2 27665  39.5766 330.8490 0008976 268.8768 245.1313 14.29218031138918
Source of the keplerian elements: AFSPC